When you browse on this site, cookies collect data to enhance your experience and personalize the content and advertising you see.
Visit our Privacy Policy to learn more. By continuing to use the site, you agree to this use of cookies and data.
  • In Latvia
  • List of Countries
  • For 7 days
  • Water Temperature
  • Satellite Maps
  • Weather Map
  • Weather Widgets
  • user-avatar
    Login

    Hourly Weather Salta

    Today, 20 February, Wednesday

    Time Temperature Precipitation Wind Pressure Humidity
    00:00 +22°C° 0.4 mm 1 mps 651 mmHg 78%
    01:00 +21°C° 0.4 mm 1 mps 651 mmHg 79%
    02:00 +20°C° 0 mm 1 mps 651 mmHg 80%
    03:00 +20°C° 0.1 mm 1 mps 651 mmHg 79%
    04:00 +20°C° 0.1 mm 1 mps 651 mmHg 79%
    05:00 +20°C° 0.1 mm 1 mps 650 mmHg 79%
    06:00 +21°C° 0 mm 1 mps 651 mmHg 73%
    07:00 +23°C° 0 mm 1 mps 652 mmHg 67%
    08:00 +25°C° 0 mm 1 mps 652 mmHg 60%
    09:00 +27°C° 0.1 mm 1 mps 653 mmHg 54%
    10:00 +29°C° 0.1 mm 2 mps 653 mmHg 49%
    11:00 +30°C° 0.1 mm 3 mps 653 mmHg 43%
    12:00 +31°C° 0.1 mm 3 mps 653 mmHg 41%
    13:00 +33°C° 0.1 mm 3 mps 652 mmHg 39%
    14:00 +34°C° 0.1 mm 3 mps 652 mmHg 37%
    15:00 +33°C° 0 mm 3 mps 651 mmHg 37%
    16:00 +33°C° 0 mm 3 mps 651 mmHg 38%
    17:00 +33°C° 0 mm 3 mps 650 mmHg 38%
    18:00 +29°C° 0 mm 3 mps 650 mmHg 45%
    19:00 +26°C° 0 mm 2 mps 650 mmHg 52%
    20:00 +24°C° 0 mm 1 mps 649 mmHg 59%
    21:00 +23°C° 0.1 mm 1 mps 650 mmHg 61%
    22:00 +23°C° 0.1 mm 1 mps 650 mmHg 62%
    23:00 +22°C° 0.1 mm 1 mps 650 mmHg 64%

    Tomorrow, 21 February, Thursday

    Time Temperature Precipitation Wind Pressure Humidity
    00:00 +22°C° 0 mm 1 mps 650 mmHg 64%
    01:00 +22°C° 0 mm 1 mps 650 mmHg 65%
    02:00 +21°C° 0 mm 1 mps 650 mmHg 65%
    03:00 +21°C° 0 mm 1 mps 650 mmHg 65%
    04:00 +21°C° 0 mm 1 mps 650 mmHg 65%
    05:00 +21°C° 0 mm 1 mps 650 mmHg 65%
    06:00 +22°C° 0 mm 1 mps 650 mmHg 61%
    07:00 +24°C° 0 mm 1 mps 651 mmHg 56%
    08:00 +26°C° 0 mm 1 mps 652 mmHg 51%
    09:00 +28°C° 0 mm 2 mps 653 mmHg 47%
    10:00 +30°C° 0 mm 2 mps 653 mmHg 43%
    11:00 +31°C° 0 mm 3 mps 654 mmHg 39%
    12:00 +33°C° 0.1 mm 3 mps 653 mmHg 37%
    13:00 +34°C° 0.1 mm 3 mps 653 mmHg 36%
    14:00 +35°C° 0.1 mm 3 mps 653 mmHg 34%
    15:00 +35°C° 0.1 mm 3 mps 652 mmHg 35%
    16:00 +34°C° 0.1 mm 3 mps 652 mmHg 36%
    17:00 +34°C° 0.1 mm 3 mps 651 mmHg 36%
    18:00 +30°C° 0 mm 3 mps 651 mmHg 45%
    19:00 +27°C° 0 mm 2 mps 651 mmHg 53%
    20:00 +25°C° 0 mm 1 mps 650 mmHg 61%
    21:00 +24°C° 0 mm 1 mps 651 mmHg 62%
    22:00 +24°C° 0 mm 1 mps 651 mmHg 64%
    23:00 +23°C° 0 mm 1 mps 652 mmHg 65%

    Day after tomorrow, 22 February, Friday

    Time Temperature Precipitation Wind Pressure Humidity
    00:00 +23°C° 0 mm 1 mps 651 mmHg 65%
    01:00 +23°C° 0 mm 1 mps 651 mmHg 66%
    02:00 +23°C° 0 mm 1 mps 651 mmHg 66%
    03:00 +22°C° 0 mm 1 mps 651 mmHg 65%
    04:00 +22°C° 0 mm 1 mps 651 mmHg 65%
    05:00 +22°C° 0 mm 1 mps 650 mmHg 65%
    06:00 +24°C° 0 mm 1 mps 651 mmHg 60%
    07:00 +26°C° 0 mm 1 mps 652 mmHg 55%
    08:00 +27°C° 0 mm 1 mps 653 mmHg 50%
    09:00 +29°C° 0 mm 1 mps 653 mmHg 46%
    10:00 +31°C° 0 mm 2 mps 654 mmHg 42%
    11:00 +34°C° 0 mm 3 mps 654 mmHg 38%
    12:00 +35°C° 0 mm 3 mps 654 mmHg 35%
    13:00 +36°C° 0 mm 3 mps 653 mmHg 32%
    14:00 +37°C° 0 mm 3 mps 653 mmHg 29%
    15:00 +37°C° 0 mm 3 mps 652 mmHg 29%
    16:00 +36°C° 0 mm 3 mps 652 mmHg 30%
    17:00 +36°C° 0 mm 3 mps 651 mmHg 30%
    18:00 +32°C° 0 mm 2 mps 651 mmHg 38%
    19:00 +29°C° 0 mm 2 mps 650 mmHg 45%
    20:00 +26°C° 0 mm 1 mps 650 mmHg 53%
    21:00 +25°C° 0 mm 1 mps 651 mmHg 54%
    22:00 +25°C° 0 mm 1 mps 651 mmHg 55%
    23:00 +24°C° 0 mm 1 mps 651 mmHg 56%

    23 February, Saturday

    Time Temperature Precipitation Wind Pressure Humidity
    00:00 +24°C° 0 mm 1 mps 651 mmHg 57%
    01:00 +24°C° 0 mm 2 mps 650 mmHg 57%
    02:00 +23°C° 0 mm 2 mps 650 mmHg 58%
    03:00 +23°C° 0 mm 2 mps 650 mmHg 58%
    04:00 +23°C° 0 mm 1 mps 649 mmHg 58%
    05:00 +23°C° 0 mm 1 mps 649 mmHg 58%
    06:00 +25°C° 0 mm 1 mps 650 mmHg 54%
    07:00 +26°C° 0 mm 1 mps 651 mmHg 49%
    08:00 +26°C° 0 mm 0 mps 651 mmHg 45%
    09:00 +30°C° 0 mm 1 mps 652 mmHg 41%
    10:00 +32°C° 0 mm 2 mps 652 mmHg 37%
    11:00 +35°C° 0 mm 3 mps 652 mmHg 33%
    12:00 +36°C° 0 mm 3 mps 652 mmHg 31%
    13:00 +36°C° 0 mm 3 mps 651 mmHg 29%
    14:00 +37°C° 0 mm 4 mps 650 mmHg 26%
    15:00 +37°C° 0 mm 4 mps 649 mmHg 27%
    16:00 +36°C° 0 mm 4 mps 648 mmHg 28%
    17:00 +36°C° 0 mm 4 mps 648 mmHg 29%
    18:00 +33°C° 0.2 mm 3 mps 647 mmHg 35%
    19:00 +29°C° 0.2 mm 2 mps 647 mmHg 41%
    20:00 +26°C° 0.2 mm 1 mps 647 mmHg 48%
    21:00 +26°C° 0.1 mm 1 mps 647 mmHg 49%
    22:00 +26°C° 0.1 mm 1 mps 647 mmHg 50%
    23:00 +25°C° 0.1 mm 1 mps 647 mmHg 51%

    24 February, Sunday

    Time Temperature Precipitation Wind Pressure Humidity
    00:00 +25°C° 0.1 mm 1 mps 647 mmHg 52%
    01:00 +24°C° 0.1 mm 2 mps 646 mmHg 53%
    02:00 +24°C° 0.1 mm 2 mps 646 mmHg 54%
    03:00 +24°C° 0 mm 1 mps 646 mmHg 55%
    04:00 +23°C° 0 mm 1 mps 645 mmHg 56%
    05:00 +23°C° 0 mm 1 mps 645 mmHg 57%
    06:00 +25°C° 0 mm 1 mps 646 mmHg 53%
    07:00 +27°C° 0 mm 1 mps 647 mmHg 49%
    08:00 +28°C° 0 mm 1 mps 648 mmHg 45%
    09:00 +31°C° 0 mm 1 mps 649 mmHg 40%
    10:00 +34°C° 0 mm 2 mps 649 mmHg 36%
    11:00 +36°C° 0 mm 2 mps 650 mmHg 31%
    12:00 +37°C° 0 mm 2 mps 649 mmHg 30%
    13:00 +38°C° 0 mm 2 mps 649 mmHg 28%
    14:00 +38°C° 0 mm 2 mps 649 mmHg 26%
    15:00 +38°C° 0 mm 2 mps 648 mmHg 28%
    16:00 +37°C° 0 mm 2 mps 648 mmHg 30%
    17:00 +36°C° 0 mm 2 mps 647 mmHg 31%
    18:00 +34°C° 0.2 mm 2 mps 647 mmHg 40%
    19:00 +30°C° 0.2 mm 2 mps 647 mmHg 49%
    20:00 +27°C° 0.2 mm 1 mps 647 mmHg 58%
    21:00 +26°C° 1 mm 1 mps 647 mmHg 63%
    22:00 +26°C° 1 mm 1 mps 647 mmHg 68%
    23:00 +25°C° 1 mm 1 mps 648 mmHg 72%

    25 February, Monday

    Time Temperature Precipitation Wind Pressure Humidity
    00:00 +24°C° 0.7 mm 1 mps 647 mmHg 74%
    01:00 +24°C° 0.7 mm 1 mps 647 mmHg 75%
    02:00 +24°C° 0.7 mm 1 mps 647 mmHg 76%
    03:00 +23°C° 0 mm 1 mps 646 mmHg 79%
    04:00 +22°C° 0 mm 1 mps 646 mmHg 83%
    05:00 +21°C° 0 mm 1 mps 646 mmHg 86%
    06:00 +22°C° 0 mm 1 mps 647 mmHg 84%
    07:00 +23°C° 0 mm 1 mps 648 mmHg 82%
    08:00 +24°C° 0 mm 1 mps 649 mmHg 80%
    09:00 +26°C° 0 mm 1 mps 649 mmHg 73%
    10:00 +28°C° 0 mm 2 mps 649 mmHg 67%
    11:00 +29°C° 0 mm 3 mps 650 mmHg 60%
    12:00 +29°C° 0.2 mm 3 mps 649 mmHg 62%
    13:00 +29°C° 0.2 mm 3 mps 648 mmHg 64%
    14:00 +28°C° 0.2 mm 3 mps 648 mmHg 66%
    15:00 +27°C° 0.4 mm 2 mps 647 mmHg 73%
    16:00 +26°C° 0.4 mm 2 mps 647 mmHg 80%
    17:00 +25°C° 0.4 mm 2 mps 646 mmHg 86%
    18:00 +24°C° 1.1 mm 2 mps 647 mmHg 89%
    19:00 +23°C° 1.1 mm 2 mps 647 mmHg 93%
    20:00 +21°C° 1.1 mm 2 mps 648 mmHg 96%
    21:00 +21°C° 1 mm 2 mps 648 mmHg 96%
    22:00 +21°C° 1 mm 1 mps 649 mmHg 97%
    23:00 +21°C° 1 mm 1 mps 649 mmHg 97%
    Show more